Time,TemperatureF,DewpointF,PressureIn,WindDirection,WindDirectionDegrees,WindSpeedMPH,WindSpeedGustMPH,Humidity,HourlyPrecipIn,Conditions,Clouds,dailyrainin,SoftwareType,DateUTC
2013-05-22 00:02:00,72.1,67.0,31.50,West,263,3.0,-999.0,83,-99.99,,,0.00,weatherlink.com 1.10,2013-05-22 04:02:00,
2013-05-22 00:17:00,72.0,66.0,31.50,SW,234,0.0,-999.0,81,-99.99,,,0.00,weatherlink.com 1.10,2013-05-22 04:17:00,
2013-05-22 00:32:00,71.4,65.0,31.50,SW,234,3.0,-999.0,80,-99.99,,,0.00,weatherlink.com 1.10,2013-05-22 04:32:00,
2013-05-22 00:47:00,71.0,65.0,31.50,West,271,3.0,-999.0,80,-99.99,,,0.00,weatherlink.com 1.10,2013-05-22 04:47:00,
2013-05-22 01:02:00,70.4,64.0,31.50,WSW,244,3.0,-999.0,81,-99.99,,,0.00,weatherlink.com 1.10,2013-05-22 05:02:00,
2013-05-22 01:17:00,70.0,64.0,31.50,WSW,242,1.0,-999.0,82,-99.99,,,0.00,weatherlink.com 1.10,2013-05-22 05:17:00,
2013-05-22 01:32:00,69.5,64.0,32.42,WSW,242,0.0,-999.0,83,-99.99,,,0.00,weatherlink.com 1.10,2013-05-22 05:32:00,
2013-05-22 01:47:00,68.9,64.0,32.42,WSW,242,0.0,-999.0,84,-99.99,,,0.00,weatherlink.com 1.10,2013-05-22 05:47:00,
2013-05-22 02:02:00,68.4,64.0,26.94,WSW,242,0.0,-999.0,85,-99.99,,,0.00,weatherlink.com 1.10,2013-05-22 06:02:00,
2013-05-22 02:17:00,68.1,64.0,26.94,WSW,242,0.0,-999.0,86,-99.99,,,0.00,weatherlink.com 1.10,2013-05-22 06:17:00,
2013-05-22 02:32:00,67.8,64.0,26.94,WSW,242,0.0,-999.0,87,-99.99,,,0.00,weatherlink.com 1.10,2013-05-22 06:32:00,
2013-05-22 02:47:00,67.4,64.0,31.51,WSW,242,0.0,-999.0,88,-99.99,,,0.00,weatherlink.com 1.10,2013-05-22 06:47:00,
2013-05-22 03:02:00,67.1,64.0,31.51,WSW,242,0.0,-999.0,88,-99.99,,,0.00,weatherlink.com 1.10,2013-05-22 07:02:00,
2013-05-22 03:17:00,67.1,64.0,29.81,WSW,242,0.0,-999.0,88,-99.99,,,0.00,weatherlink.com 1.10,2013-05-22 07:17:00,
2013-05-22 03:32:00,66.8,64.0,29.81,WSW,242,0.0,-999.0,90,-99.99,,,0.00,weatherlink.com 1.10,2013-05-22 07:32:00,
2013-05-22 03:47:00,66.5,64.0,31.51,WSW,242,0.0,-999.0,91,-99.99,,,0.00,weatherlink.com 1.10,2013-05-22 07:47:00,
2013-05-22 04:02:00,66.4,64.0,31.51,WSW,242,0.0,-999.0,91,-99.99,,,0.00,weatherlink.com 1.10,2013-05-22 08:02:00,
2013-05-22 04:17:00,66.3,64.0,29.82,WSW,242,0.0,-999.0,91,-99.99,,,0.00,weatherlink.com 1.10,2013-05-22 08:17:00,
2013-05-22 04:32:00,66.1,64.0,31.51,WSW,242,0.0,-999.0,91,-99.99,,,0.00,weatherlink.com 1.10,2013-05-22 08:32:00,
2013-05-22 04:47:00,66.0,63.0,31.51,WSW,242,0.0,-999.0,91,-99.99,,,0.00,weatherlink.com 1.10,2013-05-22 08:47:00,
2013-05-22 05:02:00,65.5,63.0,31.51,WSW,242,0.0,-999.0,92,-99.99,,,0.00,weatherlink.com 1.10,2013-05-22 09:02:00,
2013-05-22 05:17:00,64.6,63.0,31.51,WSW,242,0.0,-999.0,94,-99.99,,,0.00,weatherlink.com 1.10,2013-05-22 09:17:00,
2013-05-22 05:32:00,64.2,63.0,31.52,WSW,242,0.0,-999.0,95,-99.99,,,0.00,weatherlink.com 1.10,2013-05-22 09:32:00,
2013-05-22 05:47:00,64.0,63.0,32.35,WSW,242,0.0,-999.0,95,-99.99,,,0.00,weatherlink.com 1.10,2013-05-22 09:47:00,
2013-05-22 06:02:00,64.0,63.0,31.52,WSW,242,0.0,-999.0,95,-99.99,,,0.00,weatherlink.com 1.10,2013-05-22 10:02:00,
2013-05-22 06:17:00,63.7,63.0,31.52,WSW,242,0.0,-999.0,96,-99.99,,,0.00,weatherlink.com 1.10,2013-05-22 10:17:00,
2013-05-22 06:32:00,63.2,62.0,31.52,WSW,242,0.0,-999.0,97,-99.99,,,0.00,weatherlink.com 1.10,2013-05-22 10:32:00,
2013-05-22 06:47:00,63.3,63.0,32.35,WSW,242,0.0,-999.0,97,-99.99,,,0.00,weatherlink.com 1.10,2013-05-22 10:47:00,
2013-05-22 07:02:00,63.9,63.0,32.35,WSW,242,0.0,-999.0,97,-99.99,,,0.00,weatherlink.com 1.10,2013-05-22 11:02:00,
2013-05-22 07:17:00,64.6,64.0,32.35,WSW,242,0.0,-999.0,96,-99.99,,,0.00,weatherlink.com 1.10,2013-05-22 11:17:00,
2013-05-22 07:33:00,64.9,64.0,31.52,WSW,242,0.0,-999.0,95,-99.99,,,0.00,weatherlink.com 1.10,2013-05-22 11:33:00,
2013-05-22 07:48:00,65.8,64.0,31.52,WSW,242,0.0,-999.0,94,-99.99,,,0.00,weatherlink.com 1.10,2013-05-22 11:48:00,
2013-05-22 08:03:00,67.0,65.0,31.52,WSW,242,0.0,-999.0,92,-99.99,,,0.00,weatherlink.com 1.10,2013-05-22 12:03:00,
2013-05-22 08:18:00,68.3,65.0,32.35,WSW,242,0.0,-999.0,89,-99.99,,,0.00,weatherlink.com 1.10,2013-05-22 12:18:00,
2013-05-22 08:33:00,69.6,66.0,32.35,WSW,242,0.0,-999.0,87,-99.99,,,0.00,weatherlink.com 1.10,2013-05-22 12:33:00,
2013-05-22 08:48:00,71.1,66.0,31.52,WSW,242,3.0,-999.0,85,-99.99,,,0.00,weatherlink.com 1.10,2013-05-22 12:48:00,
2013-05-22 09:03:00,73.3,67.0,31.51,SSE,150,1.0,-999.0,80,-99.99,,,0.00,weatherlink.com 1.10,2013-05-22 13:03:00,
2013-05-22 09:18:00,74.0,67.0,32.36,South,179,0.0,-999.0,78,-99.99,,,0.00,weatherlink.com 1.10,2013-05-22 13:18:00,
2013-05-22 09:33:00,74.9,67.0,32.36,East,92,0.0,-999.0,76,-99.99,,,0.00,weatherlink.com 1.10,2013-05-22 13:33:00,
2013-05-22 09:48:00,76.4,68.0,26.94,SW,236,0.0,-999.0,74,-99.99,,,0.00,weatherlink.com 1.10,2013-05-22 13:48:00,
2013-05-22 10:03:00,77.5,68.0,26.94,South,190,1.0,-999.0,73,-99.99,,,0.00,weatherlink.com 1.10,2013-05-22 14:03:00,
2013-05-22 10:18:00,78.3,69.0,26.94,South,173,0.0,-999.0,73,-99.99,,,0.00,weatherlink.com 1.10,2013-05-22 14:18:00,
2013-05-22 10:33:00,78.5,68.0,29.81,West,278,3.0,-999.0,69,-99.99,,,0.00,weatherlink.com 1.10,2013-05-22 14:33:00,
2013-05-22 10:48:00,78.3,68.0,29.81,SSW,206,2.0,-999.0,70,-99.99,,,0.00,weatherlink.com 1.10,2013-05-22 14:48:00,
2013-05-22 11:03:00,79.5,68.0,29.82,ENE,69,4.0,-999.0,69,-99.99,,,0.00,weatherlink.com 1.10,2013-05-22 15:03:00,
2013-05-22 11:18:00,80.4,68.0,31.16,WNW,296,3.0,-999.0,67,-99.99,,,0.00,weatherlink.com 1.10,2013-05-22 15:18:00,
2013-05-22 11:33:00,80.6,70.0,31.16,West,263,0.0,-999.0,69,-99.99,,,0.00,weatherlink.com 1.10,2013-05-22 15:33:00,
2013-05-22 11:48:00,81.3,71.0,31.16,WSW,237,1.0,-999.0,70,-99.99,,,0.00,weatherlink.com 1.10,2013-05-22 15:48:00,
2013-05-22 12:03:00,82.1,72.0,31.16,WNW,286,0.0,-999.0,71,-99.99,,,0.00,weatherlink.com 1.10,2013-05-22 16:03:00,
2013-05-22 12:18:00,82.6,71.0,31.16,ESE,119,2.0,-999.0,68,-99.99,,,0.00,weatherlink.com 1.10,2013-05-22 16:18:00,
2013-05-22 12:33:00,82.1,71.0,31.16,West,271,2.0,-999.0,69,-99.99,,,0.00,weatherlink.com 1.10,2013-05-22 16:33:00,
2013-05-22 12:48:00,81.8,71.0,31.16,WNW,299,0.0,-999.0,70,-99.99,,,0.00,weatherlink.com 1.10,2013-05-22 16:48:00,
2013-05-22 13:03:00,81.4,71.0,31.16,ENE,76,3.0,-999.0,71,-99.99,,,0.00,weatherlink.com 1.10,2013-05-22 17:03:00,
2013-05-22 13:18:00,82.2,72.0,31.16,West,268,2.0,-999.0,72,-99.99,,,0.00,weatherlink.com 1.10,2013-05-22 17:18:00,
2013-05-22 13:33:00,83.2,72.0,31.77,West,259,2.0,-999.0,69,-99.99,,,0.00,weatherlink.com 1.10,2013-05-22 17:33:00,
2013-05-22 13:48:00,84.1,73.0,32.44,ESE,118,3.0,-999.0,69,-99.99,,,0.00,weatherlink.com 1.10,2013-05-22 17:48:00,
2013-05-22 14:03:00,85.0,73.0,31.50,SW,229,2.0,-999.0,67,-99.99,,,0.00,weatherlink.com 1.10,2013-05-22 18:03:00,
2013-05-22 14:18:00,84.8,72.0,31.50,NE,55,1.0,-999.0,65,-99.99,,,0.00,weatherlink.com 1.10,2013-05-22 18:18:00,
2013-05-22 14:33:00,80.2,72.0,31.50,WSW,255,1.0,-999.0,75,-99.99,,,0.00,weatherlink.com 1.10,2013-05-22 18:33:00,
2013-05-22 14:48:00,80.8,73.0,25.32,WSW,256,1.0,-999.0,76,-99.99,,,0.00,weatherlink.com 1.10,2013-05-22 18:48:00,
2013-05-22 15:03:00,81.1,71.0,25.32,West,267,0.0,-999.0,71,-99.99,,,0.00,weatherlink.com 1.10,2013-05-22 19:03:00,
2013-05-22 15:18:00,81.7,71.0,25.32,West,281,1.0,-999.0,71,-99.99,,,0.00,weatherlink.com 1.10,2013-05-22 19:18:00,
2013-05-22 15:33:00,76.6,70.0,29.82,WNW,284,1.0,-999.0,79,-99.99,,,0.04,weatherlink.com 1.10,2013-05-22 19:33:00,
2013-05-22 15:48:00,70.4,67.0,26.95,WSW,256,9.0,-999.0,88,-99.99,,,0.05,weatherlink.com 1.10,2013-05-22 19:48:00,
2013-05-22 16:03:00,64.6,63.0,29.84,WSW,257,1.0,-999.0,93,-99.99,,,0.15,weatherlink.com 1.10,2013-05-22 20:03:00,
2013-05-22 16:18:00,62.8,62.0,29.84,SE,137,0.0,-999.0,96,-99.99,,,0.28,weatherlink.com 1.10,2013-05-22 20:18:00,
2013-05-22 16:33:00,62.9,62.0,29.84,SE,126,0.0,-999.0,96,-99.99,,,0.37,weatherlink.com 1.10,2013-05-22 20:33:00,
2013-05-22 16:48:00,63.7,63.0,29.84,SE,126,0.0,-999.0,98,-99.99,,,0.44,weatherlink.com 1.10,2013-05-22 20:48:00,
2013-05-22 17:03:00,64.4,64.0,29.84,ESE,123,0.0,-999.0,98,-99.99,,,0.48,weatherlink.com 1.10,2013-05-22 21:03:00,
2013-05-22 17:18:00,64.8,65.0,28.88,ESE,123,0.0,-999.0,99,-99.99,,,0.52,weatherlink.com 1.10,2013-05-22 21:18:00,
2013-05-22 17:33:00,65.2,65.0,26.00,ENE,72,2.0,-999.0,99,-99.99,,,0.54,weatherlink.com 1.10,2013-05-22 21:33:00,
2013-05-22 17:48:00,66.3,66.0,26.96,WNW,286,0.0,-999.0,100,-99.99,,,0.56,weatherlink.com 1.10,2013-05-22 21:48:00,
2013-05-22 18:03:00,67.2,67.0,28.88,WNW,286,0.0,-999.0,99,-99.99,,,0.56,weatherlink.com 1.10,2013-05-22 22:03:00,
2013-05-22 18:18:00,66.9,67.0,29.84,SW,221,2.0,-999.0,99,-99.99,,,0.56,weatherlink.com 1.10,2013-05-22 22:18:00,
2013-05-22 18:34:00,66.2,66.0,31.19,West,279,0.0,-999.0,99,-99.99,,,0.56,weatherlink.com 1.10,2013-05-22 22:34:00,
2013-05-22 18:49:00,65.7,65.0,31.19,West,279,0.0,-999.0,99,-99.99,,,0.57,weatherlink.com 1.10,2013-05-22 22:49:00,
2013-05-22 19:04:00,65.0,65.0,28.83,West,279,1.0,-999.0,99,-99.99,,,0.57,weatherlink.com 1.10,2013-05-22 23:04:00,
2013-05-22 19:19:00,64.9,65.0,31.05,West,279,0.0,-999.0,99,-99.99,,,0.58,weatherlink.com 1.10,2013-05-22 23:19:00,
2013-05-22 19:34:00,64.7,64.0,30.75,ESE,115,3.0,-999.0,99,-99.99,,,0.59,weatherlink.com 1.10,2013-05-22 23:34:00,
2013-05-22 19:49:00,64.8,65.0,30.75,SSW,200,0.0,-999.0,99,-99.99,,,0.59,weatherlink.com 1.10,2013-05-22 23:49:00,
2013-05-22 20:04:00,64.7,64.0,30.75,East,88,3.0,-999.0,99,-99.99,,,0.59,weatherlink.com 1.10,2013-05-23 00:04:00,
2013-05-22 20:19:00,64.7,64.0,30.75,SE,138,0.0,-999.0,99,-99.99,,,0.59,weatherlink.com 1.10,2013-05-23 00:19:00,
2013-05-22 20:34:00,64.5,64.0,30.85,WSW,237,0.0,-999.0,99,-99.99,,,0.59,weatherlink.com 1.10,2013-05-23 00:34:00,
2013-05-22 20:49:00,64.4,64.0,32.01,WSW,237,0.0,-999.0,99,-99.99,,,0.59,weatherlink.com 1.10,2013-05-23 00:49:00,
2013-05-22 21:04:00,64.3,64.0,29.83,WSW,237,0.0,-999.0,99,-99.99,,,0.59,weatherlink.com 1.10,2013-05-23 01:04:00,
2013-05-22 21:19:00,64.0,64.0,29.82,SW,233,0.0,-999.0,99,-99.99,,,0.59,weatherlink.com 1.10,2013-05-23 01:19:00,
2013-05-22 21:34:00,63.8,64.0,29.82,West,277,0.0,-999.0,99,-99.99,,,0.59,weatherlink.com 1.10,2013-05-23 01:34:00,
2013-05-22 21:49:00,63.8,64.0,29.82,West,276,0.0,-999.0,100,-99.99,,,0.59,weatherlink.com 1.10,2013-05-23 01:49:00,
2013-05-22 22:04:00,63.6,63.0,26.95,WNW,284,0.0,-999.0,99,-99.99,,,0.59,weatherlink.com 1.10,2013-05-23 02:04:00,
2013-05-22 22:19:00,63.6,63.0,26.95,ESE,103,1.0,-999.0,99,-99.99,,,0.60,weatherlink.com 1.10,2013-05-23 02:19:00,
2013-05-22 22:34:00,63.5,63.0,31.16,SE,136,0.0,-999.0,99,-99.99,,,0.61,weatherlink.com 1.10,2013-05-23 02:34:00,
2013-05-22 22:49:00,63.5,64.0,31.16,SE,136,2.0,-999.0,100,-99.99,,,0.61,weatherlink.com 1.10,2013-05-23 02:49:00,
2013-05-22 23:04:00,63.5,63.0,31.16,SE,126,2.0,-999.0,99,-99.99,,,0.61,weatherlink.com 1.10,2013-05-23 03:04:00,
2013-05-22 23:19:00,63.2,63.0,24.70,SE,128,0.0,-999.0,99,-99.99,,,0.61,weatherlink.com 1.10,2013-05-23 03:19:00,
2013-05-22 23:34:00,63.2,63.0,24.70,SE,128,0.0,-999.0,99,-99.99,,,0.61,weatherlink.com 1.10,2013-05-23 03:34:00,
2013-05-22 23:49:00,62.9,63.0,24.70,SE,128,0.0,-999.0,99,-99.99,,,0.61,weatherlink.com 1.10,2013-05-23 03:49:00,